DW6196 Weather Reports


Display with metric or nautical units.
time (UTC)temp
F
wind
direction
speed
MPH
gust
MPH
rain 1hr
in
rain 24hr
in
rain mn
in
humidity
%
barometer
mb
20210614123105 76 5 0.0 4.0 0.00 0.01 0.00 84 1010.2
20210614121547 75 5 0.0 3.0 0.00 0.01 0.00 85 1010.3
20210614114611 73 360 0.0 3.0 0.00 0.01 0.00 82 1009.9
20210614113042 72 76 0.0 0.0 0.00 0.01 0.00 81 1009.8
20210614110123 72 5 0.0 0.0 0.00 0.01 0.00 82 1009.5
20210614104536 72 5 0.0 1.0 0.00 0.01 0.00 82 1009.3
20210614103218 72 5 0.0 1.0 0.00 0.01 0.00 82 1009.0
20210614101544 73 5 0.0 1.0 0.00 0.01 0.00 81 1009.1
20210614094632 73 5 0.0 0.0 0.00 0.01 0.00 80 1009.0
20210614093010 73 5 0.0 0.0 0.00 0.01 0.00 80 1008.8
20210614091626 73 5 0.0 0.0 0.00 0.01 0.00 81 1008.7
20210614084535 73 5 0.0 2.0 0.00 0.01 0.00 81 1008.5
20210614083020 73 5 0.0 0.0 0.00 0.01 0.00 82 1008.4
20210614080159 74 5 0.0 3.0 0.00 0.01 0.00 83 1008.4
20210614074537 74 5 0.0 3.0 0.00 0.01 0.00 83 1008.4
20210614071549 74 267 0.0 0.0 0.00 0.01 0.00 84 1008.5
20210614064629 74 266 0.0 0.0 0.00 0.01 0.00 84 1008.5
20210614061640 75 266 0.0 0.0 0.00 0.01 0.00 84 1008.5
20210614060117 75 266 0.0 2.0 0.00 0.01 0.00 84 1008.2
20210614054535 75 266 0.0 2.0 0.00 0.01 0.00 84 1008.2
20210614053059 76 266 0.0 0.0 0.00 0.01 0.00 85 1008.2
20210614051508 76 265 0.0 2.0 0.00 0.01 0.00 85 1008.3
20210614050143 77 265 0.0 1.0 0.00 0.01 0.00 85 1008.3
20210614044632 77 265 0.0 1.0 0.00 0.01 0.01 85 1008.6
20210614043004 77 265 0.0 2.0 0.00 0.01 0.01 84 1008.9
20210614041628 78 265 0.0 1.0 0.00 0.01 0.01 84 1008.6
20210614040021 78 265 0.0 0.0 0.00 0.01 0.01 84 1008.5
20210614033148 79 360 0.0 1.0 0.00 0.01 0.01 83 1009.1
20210614031707 79 360 0.0 0.0 0.00 0.01 0.01 83 1009.3
20210614030112 80 360 0.0 0.0 0.00 0.01 0.01 82 1009.1
20210614024530 80 360 0.0 4.0 0.00 0.01 0.01 81 1009.1
20210614021634 81 55 0.0 1.0 0.00 0.01 0.01 78 1009.2
20210614020037 81 55 0.0 0.0 0.00 0.01 0.01 77 1009.0
20210614014620 81 55 0.0 4.0 0.00 0.09 0.01 76 1008.6
20210614013039 82 145 0.0 3.0 0.00 0.09 0.01 73 1008.2
20210614010212 83 342 0.0 2.0 0.00 0.09 0.01 72 1008.1
20210614004609 83 342 0.0 3.0 0.00 0.28 0.01 75 1007.3
20210614001655 84 222 0.0 1.0 0.00 0.28 0.01 78 1007.3
20210614000006 84 207 0.0 0.0 0.00 0.28 0.01 77 1007.1
20210613234626 85 206 0.0 0.0 0.00 0.28 0.01 76 1006.8
20210613233151 86 206 0.0 2.0 0.00 0.28 0.01 75 1006.4
20210613231514 87 54 0.0 1.0 0.00 0.28 0.01 71 1006.3
20210613230122 88 336 0.0 2.0 0.00 0.28 0.01 70 1006.4
20210613224535 89 234 0.0 5.0 0.00 0.28 0.01 63 1006.4
20210613223129 91 67 2.0 8.0 0.00 0.28 0.01 52 1006.2
20210613221519 92 300 1.0 8.0 0.00 0.28 0.01 50 1006.2
20210613220222 93 82 2.0 6.0 0.00 0.28 0.01 48 1006.1
20210613214545 95 355 1.0 8.0 0.00 0.28 0.01 46 1006.3
20210613213148 94 36 2.0 7.0 0.00 0.28 0.01 47 1006.4
20210613211524 94 355 1.0 5.0 0.00 0.28 0.01 48 1006.3
20210613210150 95 69 1.0 5.0 0.00 0.28 0.01 48 1006.4
20210613204539 94 344 1.0 4.0 0.00 0.28 0.01 47 1006.7
20210613201647 95 16 1.0 5.0 0.00 0.28 0.01 47 1007.0
20210613194640 94 360 2.0 9.0 0.00 0.28 0.01 49 1007.3
20210613193018 94 96 3.0 8.0 0.00 0.28 0.01 48 1007.5
20210613191643 93 360 2.0 7.0 0.00 0.28 0.01 49 1007.6
20210613190035 94 47 1.0 7.0 0.00 0.28 0.01 48 1008.0
20210613183110 94 98 2.0 8.0 0.00 0.28 0.01 48 1008.5
20210613181516 93 223 1.0 9.0 0.00 0.28 0.01 49 1008.7
20210613180116 93 16 2.0 10.0 0.00 0.28 0.01 51 1009.1
20210613174508 92 336 2.0 6.0 0.00 0.50 0.01 52 1009.3
20210613173150 92 73 2.0 9.0 0.00 0.50 0.01 54 1009.4
20210613171533 91 237 1.0 7.0 0.00 0.50 0.01 55 1009.6
20210613170005 90 350 2.0 7.0 0.00 0.50 0.01 60 1009.7
20210613164630 89 355 2.0 6.0 0.00 0.50 0.01 60 1009.8
20210613163108 87 5 2.0 6.0 0.00 0.50 0.01 63 1009.9
20210613161525 87 281 2.0 6.0 0.00 0.50 0.01 67 1010.0
20210613154612 85 13 1.0 6.0 0.01 0.50 0.01 67 1010.0
20210613153028 85 355 2.0 6.0 0.01 0.50 0.01 69 1010.0
20210613151651 84 348 1.0 5.0 0.01 0.50 0.01 71 1009.9
20210613150044 83 21 1.0 6.0 0.01 0.50 0.01 70 1009.8
20210613143129 81 53 1.0 5.0 0.00 0.49 0.00 78 1009.9
20210613130104 76 330 0.0 5.0 0.00 0.49 0.00 79 1009.6
20210613124510 74 268 0.0 3.0 0.00 0.49 0.00 79 1009.5